Notices

What's New in latest Release from April 7th, 2021:

- Updated Glossary, including Speed of Maximum Gust, and Total Hourly Precipitation

- Updated national and regional climate services offices contacts and prices information

- Addition of station inventory lists for 1981-2010, 1971-2000, and 1961-1990 Normals.

If you haven't already, please take our survey and provide feedback about our website: https://eccc.sondage-survey.ca/f/LanguageSelection.aspx?s=442ca660-fcf1-47c0-95a9-59707d6fd709

Hourly Data Report for October 10, 2003

TORONTO CITY
ONTARIO

43°40'00.000" N
79°24'00.000" W
112.50 m
6158355
71508
XTO

Download Data

Hourly Data (October 2003)
Hourly Data Report for October 10, 2003
TIME
LST
Temp Definition
°C
Dew Point Definition
°C
Rel Hum Definition
%
Precip. Amount Definition
mm

Wind Dir Definition
10's deg

Wind Spd Definition
km/h
Visibility Definition
km
Stn Press Definition
kPa
Hmdx Definition


Wind Chill Definition


Weather Definition


00:00 15.8 13.3 85   LegendMM LegendMM LegendMM 100.72     LegendNANA
01:00 16.1 13.5 85   LegendMM LegendMM LegendMM 100.72     LegendNANA
02:00 16.0 13.4 85   LegendMM LegendMM LegendMM 100.68     LegendNANA
03:00 16.3 13.2 82   LegendMM LegendMM LegendMM 100.68     LegendNANA
04:00 15.9 13.0 83   LegendMM LegendMM LegendMM 100.70     LegendNANA
05:00 15.8 13.3 85   LegendMM LegendMM LegendMM 100.71     LegendNANA
06:00 16.2 13.5 84   LegendMM LegendMM LegendMM 100.73     LegendNANA
07:00 15.8 13.5 86   LegendMM LegendMM LegendMM 100.76     LegendNANA
08:00 15.9 14.1 89   LegendMM LegendMM LegendMM 100.79     LegendNANA
09:00 15.2 14.0 93   LegendMM LegendMM LegendMM 100.85     LegendNANA
10:00 17.4 14.9 85   LegendMM LegendMM LegendMM 100.84     LegendNANA
11:00 17.8 14.9 83   LegendMM LegendMM LegendMM 100.83     LegendNANA
12:00 19.0 15.0 78   LegendMM LegendMM LegendMM 100.79     LegendNANA
13:00 20.9 14.9 69   LegendMM LegendMM LegendMM 100.73 25   LegendNANA
14:00 20.6 14.7 69   LegendMM LegendMM LegendMM 100.69     LegendNANA
15:00 20.8 14.5 67   LegendMM LegendMM LegendMM 100.65     LegendNANA
16:00 20.4 14.4 68   LegendMM LegendMM LegendMM 100.63     LegendNANA
17:00 19.7 14.4 71   LegendMM LegendMM LegendMM 100.63     LegendNANA
18:00 17.9 13.7 76   LegendMM LegendMM LegendMM 100.65     LegendNANA
19:00 17.2 13.5 79   LegendMM LegendMM LegendMM 100.66     LegendNANA
20:00 16.7 13.4 81   LegendMM LegendMM LegendMM 100.67     LegendNANA
21:00 16.8 13.3 80   LegendMM LegendMM LegendMM 100.70     LegendNANA
22:00 16.5 13.5 82   LegendMM LegendMM LegendMM 100.71     LegendNANA
23:00 15.7 13.5 87   LegendMM LegendMM LegendMM 100.69     LegendNANA

Notes on Data Quality.

Legend

  • E = Estimated
  • M = Missing
  • NA = Not Available*
  • [empty] = Indicates an unobserved value
Date modified: